Skip Page Navigation
NASA JPL Caltech
NASA Logo - Jet Propulsion Laboratory + View the NASA Portal
+ Center for Near-Earth Object Studies
JPL Home Earth Solar System Stars & Galaxies Technology
JPL Solar System Dynamics
BODIES ORBITS EPHEMERIDES TOOLS PHYSICAL DATA DISCOVERY FAQ SITE MAP
IMPORTANT: The SSD Announcement email list is now available. Major changes are coming in the near future, including possible hostname and/or URL changes. To be notified of such changes, subscribe to this email list.

Please visit this page for more details.


JPL Small-Body Database Browser
Search: [ help ]  
146724 (2001 XC24)
Classification: Main-belt Asteroid          SPK-ID: 2146724
Ephemeris | Orbit Diagram | Orbital Elements | Mission Design | Physical Parameters | Discovery Circumstances | Close-Approach Data ]

[ show orbit diagram ]
Orbital Elements at Epoch 2458600.5 (2019-Apr-27.0) TDB
Reference: JPL 16 (heliocentric ecliptic J2000)
 Element Value Uncertainty (1-sigma)   Units 
e .1863796649265684 4.5616e-08  
a 2.80155704147752 2.4331e-08 au
q 2.279403778814272 1.3159e-07 au
i 12.65566611718552 6.1818e-06 deg
node 68.43794190670965 2.235e-05 deg
peri 58.62476745409817 2.8739e-05 deg
M 222.3892451070676 1.9265e-05 deg
tp 2459255.207788648281
(2021-Feb-09.70778865)
9.6682e-05 TDB
period 1712.764413630044
4.69
2.2313e-05
6.109e-08
d
yr
n .2101865248572123 2.7382e-09 deg/d
Q 3.323710304140768 2.8866e-08 au
  Orbit Determination Parameters
   # obs. used (total)      522  
   data-arc span      15355 days (42.04 yr)  
   first obs. used      1977-10-17  
   last obs. used      2019-11-01  
   planetary ephem.      DE431  
   SB-pert. ephem.      SB431-N16  
   condition code      0  
   norm. resid. RMS      .55712  
   source      ORB  
   producer      Otto Matic  
   solution date      2019-Nov-07 17:07:01  

Additional Information
 Earth MOID = 1.32385 au 
 Jupiter MOID = 1.91284 au 
 T_jup = 3.264 
[ show covariance matrix ]

Ephemeris | Orbit Diagram | Orbital Elements | Mission Design | Physical Parameters | Discovery Circumstances | Close-Approach Data ]

Physical Parameter Table
Parameter Symbol Value Units Sigma Reference Notes
absolute magnitude H 15.1   n/a MPO453933  
diameter diameter 5.401 km 0.125 urn:nasa:pds:neowise_diameters_albedos::2.0[mainbelt] (http://adsabs.harvard.edu/abs/2011ApJ...741...68M)  
geometric albedo albedo 0.060   0.014 urn:nasa:pds:neowise_diameters_albedos::2.0[mainbelt] (http://adsabs.harvard.edu/abs/2012ApJ...759L...8M)  

146724 (2001 XC24)          Discovered 2001-Dec-10 by LINEAR at Socorro
Reference: 20070106/Numbers.arcLast Updated: 2007-01-09

[ show close-approach data ]
Ephemeris | Orbit Diagram | Orbital Elements | Mission Design | Physical Parameters | Discovery Circumstances | Close-Approach Data ]
ABOUT SSD CREDITS/AWARDS PRIVACY/COPYRIGHT GLOSSARY LINKS
FirstGov 2019-Dec-07 04:06 UT
(server date/time)  
NASA Home Page
Site Manager:   Ryan S. Park
Webmaster  Alan B. Chamberlin